This is the latest recevied weather packets stored in our database for station/object OE6ACM-10. If no packets are shown the sender has not sent any weather packets the latest 10 day(s).
| Time | Temp. | Humidity | Pressure | Rain* | Wind** | Luminosity | Snow |
|---|---|---|---|---|---|---|---|
| 1777634382 | 26.67° C | 58% | 935.2 hPa | - | - | - | - |
| 1777634082 | 27.22° C | 53% | 935.3 hPa | - | - | - | - |
| 1777633782 | 27.22° C | 53% | 935.4 hPa | - | - | - | - |
| 1777633482 | 26.67° C | 60% | 935.4 hPa | - | - | - | - |
| 1777633182 | 26.11° C | 55% | 935.4 hPa | - | - | - | - |
| 1777632882 | 25.56° C | 58% | 935.4 hPa | - | - | - | - |
| 1777632582 | 26.11° C | 53% | 935.6 hPa | - | - | - | - |
| 1777632282 | 26.11° C | 55% | 935.6 hPa | - | - | - | - |
| 1777631982 | 26.11° C | 62% | 935.6 hPa | - | - | - | - |
| 1777631682 | 26.11° C | 63% | 935.7 hPa | - | - | - | - |
| 1777631382 | 25.56° C | 63% | 935.8 hPa | - | - | - | - |
| 1777631082 | 26.11° C | 62% | 935.8 hPa | - | - | - | - |
| 1777630782 | 25.56° C | 64% | 935.8 hPa | - | - | - | - |
| 1777630482 | 25° C | 68% | 935.9 hPa | - | - | - | - |
| 1777630182 | 24.44° C | 64% | 936 hPa | - | - | - | - |
| 1777629882 | 24.44° C | 71% | 936 hPa | - | - | - | - |
| 1777629582 | 24.44° C | 70% | 936 hPa | - | - | - | - |
| 1777629282 | 23.89° C | 67% | 936.1 hPa | - | - | - | - |
| 1777628982 | 23.89° C | 70% | 936.1 hPa | - | - | - | - |
| 1777628682 | 23.89° C | 66% | 936.1 hPa | - | - | - | - |
| 1777628382 | 23.89° C | 73% | 936.2 hPa | - | - | - | - |
| 1777628082 | 23.33° C | 67% | 936.3 hPa | - | - | - | - |
| 1777627782 | 22.78° C | 67% | 936.3 hPa | - | - | - | - |
| 1777627482 | 23.33° C | 67% | 936.3 hPa | - | - | - | - |
| 1777627182 | 22.78° C | 67% | 936.4 hPa | - | - | - | - |
* Rain since midnight (hover to see other rain measurements)
** Current wind speed in m/s (hover to see current wind gust speed)